Location: Boćki
(52.6512°N, 23.0459°E)
Time: 11:21:56
(UTC+01:00)

ISS - Visible Passes

Search period start: 24 January 2019 00:00
Search period end: 03 February 2019 00:00
Orbit: 404 x 410 km, 51.6° (Epoch: 24 January)

Date Brightness Start Highest point End Pass type
(mag) Time Alt. Az. Time Alt. Az. Time Alt. Az.
24 Jan -1.8 17:50:00 10° S 17:52:03 17° SSE 17:52:03 17° SSE visible
25 Jan -1.4 16:59:56 10° SSE 17:01:10 12° SE 17:02:24 10° ESE visible
25 Jan -2.0 18:33:56 10° SW 18:35:41 26° SSW 18:35:41 26° SSW visible
26 Jan -2.6 17:42:52 10° SW 17:45:47 29° SSE 17:46:30 26° SE visible
26 Jan -0.6 19:18:45 10° WSW 19:19:14 13° WSW 19:19:14 13° WSW visible
27 Jan -2.0 16:52:01 10° SSW 16:54:34 21° SSE 16:57:08 10° E visible
27 Jan -2.9 18:27:26 10° WSW 18:30:00 45° SW 18:30:00 45° SW visible
28 Jan -3.2 17:36:10 10° SW 17:39:21 46° SSE 17:40:43 28° ESE visible
28 Jan -1.0 19:12:26 10° W 19:13:26 18° W 19:13:26 18° W visible
29 Jan -2.7 16:45:01 10° SW 16:48:02 34° SSE 16:51:04 10° E visible
29 Jan -3.7 18:21:02 10° W 18:24:07 69° SSW 18:24:07 69° SSW visible
30 Jan -3.6 17:29:39 10° WSW 17:32:57 64° SSE 17:34:47 23° E visible
30 Jan -1.3 19:06:05 10° W 19:07:29 23° W 19:07:29 23° W visible
31 Jan -3.9 18:14:39 10° W 18:17:58 76° S 18:18:09 72° SE visible
01 Feb -3.7 17:23:13 10° W 17:26:31 75° S 17:28:49 18° E visible
01 Feb -1.8 18:59:42 10° W 19:01:32 28° W 19:01:32 28° W visible
02 Feb -3.6 18:08:14 10° W 18:11:32 65° S 18:12:12 49° SE visible
